Flag for France Weather past 2 weeks in Gustavia, Saint Barthélemy, France

Now
82 °F

Partly sunny.


Feels Like: 87 °F
Forecast: N/A
Wind: 8 mph from Southeast

Location: Juliana Airport - Saint Maarten

Current Time: May 28, 2015 at 6:57:05 PM

Latest Report: May 28, 2015 at 6:00 PM


Visibility: N/A

Pressure: 29.98 "Hg

Humidity: 70%

Dew point: 72 °F

Location of GustaviaLocation

Historic Weather in Gustavia — Graph

°F

Gustavia temperature yesterday

Maximum temperature yesterday: 84 °F (at 11:00 AM)
Minimum temperature yesterday: 77 °F (at 1:00 AM)
Average temperature yesterday: 81 °F

Past Weeks' High & Low Weather Summary

 TemperatureHumidityPressure
High86 °F (May 14, 12:00 PM)94% (May 19, 9:00 AM)30.15 "Hg (May 19, 9:00 AM)
Low75 °F (May 16, 12:00 AM)52% (May 14, 12:00 PM)29.92 "Hg (May 27, 4:00 PM)
Average82 °F72%30.03 "Hg
* Reported May 13 5:00 PM — May 28 5:00 PM, Gustavia, Weather by CustomWeather, © 2015

Note: Actual official high and low records may vary slightly from our data, if they occured in-between our weather recording intervals... More about our weather records

Advertising

Gustavia weather history for previous 24 hours

 ConditionsComfort  
Time TempWeatherWind HumidityBarometerVisibility
5:00 PM
Thu, May 28
84 °FPartly sunny.9 mph66%29.95 "HgN/A
4:00 PM84 °FPartly sunny.9 mph62%29.95 "HgN/A
3:00 PM84 °FPartly sunny.9 mph70%29.95 "HgN/A
2:00 PM84 °FScattered clouds.9 mph74%29.98 "HgN/A
1:00 PM84 °FPassing clouds.9 mph70%29.98 "HgN/A
12:00 PM84 °FPassing clouds.10 mph66%29.98 "HgN/A
11:00 AM84 °FPassing clouds.9 mph70%30.01 "HgN/A
10:00 AM84 °FPassing clouds.10 mph70%30.01 "HgN/A
9:00 AM82 °FPassing clouds.10 mph70%29.98 "HgN/A
8:00 AM82 °FPassing clouds.9 mph70%29.98 "HgN/A
7:00 AM81 °FScattered clouds.10 mph74%29.98 "HgN/A
6:00 AM81 °FPassing clouds.10 mph70%29.95 "HgN/A
5:00 AM81 °FPassing clouds.10 mph74%29.95 "HgN/A
4:00 AM81 °FPassing clouds.7 mph74%29.92 "HgN/A
3:00 AM81 °FPassing clouds.7 mph70%29.92 "HgN/A
2:00 AM79 °FPassing clouds.8 mph79%29.92 "HgN/A
1:00 AM81 °FPassing clouds.6 mph74%29.95 "HgN/A
12:00 AM79 °FPassing clouds.3 mph74%29.98 "HgN/A
11:00 PM
Wed, May 27
79 °FPassing clouds.5 mph74%29.98 "HgN/A
10:00 PM79 °FPassing clouds.3 mph74%29.98 "HgN/A
9:00 PM79 °FPassing clouds.5 mph74%29.98 "HgN/A
8:00 PM79 °FPassing clouds.5 mph79%29.98 "HgN/A
7:00 PM81 °FScattered showers. Passing clouds.3 mph74%29.95 "HgN/A
6:00 PM82 °FScattered clouds.6 mph66%29.95 "HgN/A
Weather by CustomWeather, © 2015

See weather overviewHow to use our weather pages